Davenport, IA

6:23 PM CDT on September 22, 2019 (GMT -0500)
Davenport Municipal

Weather History for KDVN - August, 2019

Change the Weather History Date:

Sunday, August 25, 2019

  Actual Average Record
Temperature  
Mean Temperature 65 °F 70 °F  
Max Temperature 74 °F 81 °F 95 °F (1959)
Min Temperature 56 °F 59 °F 48 °F (1958)
Degree Days  
Heating Degree Days 0 0  
Month to date heating degree days 0 0  
Since 1 June heating degree days 8 28  
Since 1 July heating degree days 0 4  
Cooling Degree Days 0 6  
Month to date cooling degree days 193 175  
Year to date cooling degree days 827 676  
Since 1 June cooling degree days 779 615  
Growing Degree Days 15 (Base 50)    
Moisture  
Dew Point 56 °F    
Average Humidity 70    
Maximum Humidity 86    
Minimum Humidity 53    
Precipitation  
Precipitation 0.20 in 0.13 in 1.80 in (1963)
Month to date precipitation 2.50 3.84  
Year to date precipitation 31.58 25.04  
Snow  
Snow 0.00 in - - ()
Month to date snowfall 0.0  
Since 1 June snowfall 0.0  
Since 1 July snowfall 0.0  
Snow Depth 0.00 in    
Sea Level Pressure  
Sea Level Pressure 30.03 in    
Wind  
Wind Speed 10 mph (East)    
Max Wind Speed 17 mph    
Max Gust Speed 25 mph    
Visibility 9 miles    
Events Rain    
T = Trace of Precipitation, MM = Missing Value Source: NWS Daily Summary

Daily Weather History Graph

Daily Weather History Graph

Search for Another Location

Airport or City:

Astronomy

Aug. 25, 2019 Rise Set
Actual Time 6:21 AM CDT 7:47 PM CDT
Civil Twilight 5:51 AM CDT 8:16 PM CDT
Nautical Twilight 5:17 AM CDT 8:50 PM CDT
Astronomical Twilight 4:39 AM CDT 9:27 PM CDT
Moon 12:53 AM CDT (8/25) 4:10 PM CDT (8/25)
Length of Visible Light 14h 24m
Length of Day
13h 26m
Waning Crescent, 29% of the Moon is Illuminated
Aug 25
Waning Crescent
Aug 30
New
Sep 5
First Quarter
Sep 13
Full
Sep 21
Last Quarter

Hourly Weather History & Observations

Time (CDT) Temp. Dew Point Humidity Pressure Visibility Wind Dir Wind Speed Gust Speed Precip Events Conditions
12:52 AM 60.1 °F 52.0 °F 75% 30.15 in 10.0 mi East 9.2 mph - N/A   Partly Cloudy
1:52 AM 59.0 °F 52.0 °F 78% 30.13 in 10.0 mi East 6.9 mph - N/A   Clear
2:52 AM 57.9 °F 52.0 °F 81% 30.12 in 10.0 mi East 5.8 mph - N/A   Clear
3:52 AM 57.0 °F 53.1 °F 87% 30.10 in 10.0 mi East 5.8 mph - N/A   Clear
4:52 AM 57.0 °F 53.1 °F 87% 30.10 in 10.0 mi East 6.9 mph - N/A   Partly Cloudy
5:52 AM 57.9 °F 53.1 °F 84% 30.10 in 10.0 mi East 5.8 mph - N/A   Clear
6:52 AM 59.0 °F 54.0 °F 83% 30.10 in 10.0 mi East 6.9 mph - N/A   Mostly Cloudy
7:52 AM 61.0 °F 54.0 °F 78% 30.09 in 10.0 mi ESE 10.4 mph - N/A   Clear
8:52 AM 64.9 °F 55.9 °F 73% 30.08 in 10.0 mi East 10.4 mph - N/A   Clear
9:52 AM 64.9 °F 55.9 °F 73% 30.07 in 10.0 mi East 9.2 mph - N/A   Scattered Clouds
10:52 AM 68.0 °F 57.9 °F 70% 30.07 in 10.0 mi ESE 8.1 mph - N/A   Mostly Cloudy
11:52 AM 73.0 °F 57.0 °F 57% 30.05 in 10.0 mi ESE 11.5 mph 21.9 mph N/A   Mostly Cloudy
12:52 PM 73.0 °F 55.9 °F 55% 30.04 in 10.0 mi ESE 16.1 mph 21.9 mph N/A   Mostly Cloudy
1:52 PM 73.0 °F 55.0 °F 53% 30.02 in 10.0 mi East 12.7 mph - N/A   Scattered Clouds
2:52 PM 72.0 °F 55.0 °F 55% 30.01 in 10.0 mi ESE 15.0 mph - N/A   Mostly Cloudy
3:52 PM 73.0 °F 57.0 °F 57% 29.99 in 10.0 mi East 16.1 mph - N/A   Scattered Clouds
4:52 PM 69.1 °F 57.0 °F 65% 29.99 in 8.0 mi SE 12.7 mph - 0.02 in Rain Light Rain
4:59 PM 66.0 °F 59.0 °F 78% 30.00 in 1.8 mi ESE 10.4 mph - 0.06 in Rain Heavy Rain
5:09 PM 64.0 °F 57.0 °F 78% 29.99 in 3.0 mi NE 10.4 mph - 0.07 in Rain Light Rain
5:27 PM 63.0 °F 57.9 °F 84% 29.99 in 1.8 mi NNE 11.5 mph - 0.12 in Rain Rain
5:32 PM 63.0 °F 57.9 °F 84% 29.99 in 3.0 mi NE 11.5 mph - 0.12 in Rain Light Rain
5:52 PM 64.0 °F 59.0 °F 84% 29.97 in 10.0 mi NE 8.1 mph - 0.12 in Rain Light Rain
6:52 PM 64.0 °F 57.9 °F 80% 29.96 in 10.0 mi ENE 10.4 mph - 0.05 in   Overcast
7:52 PM 63.0 °F 57.9 °F 84% 29.95 in 10.0 mi ENE 10.4 mph - N/A   Overcast
8:52 PM 64.9 °F 59.0 °F 81% 29.95 in 10.0 mi East 9.2 mph - N/A   Overcast
9:52 PM 64.0 °F 59.0 °F 84% 29.94 in 10.0 mi East 10.4 mph - N/A   Overcast
10:52 PM 64.0 °F 60.1 °F 87% 29.93 in 10.0 mi East 11.5 mph - 0.00 in Rain Light Rain
11:52 PM 64.0 °F 60.1 °F 87% 29.90 in 9.0 mi ENE 10.4 mph - 0.00 in Rain Light Rain